Time,TemperatureF,DewpointF,PressureIn,WindDirection,WindDirectionDegrees,WindSpeedMPH,WindSpeedGustMPH,Humidity,HourlyPrecipIn,Conditions,Clouds,dailyrainin,SolarRadiationWatts/m^2,SoftwareType,DateUTC
2013-09-06 00:23:00,67.0,62.0,29.83,WNW,301,3.0,6.0,83,0.00,,,0.00,0.000000,,2013-09-06 07:23:00,
2013-09-06 00:32:00,67.0,62.0,29.83,WNW,301,3.0,6.0,83,0.00,,,0.00,0.000000,,2013-09-06 07:32:00,
2013-09-06 00:42:00,67.0,62.0,29.83,WNW,301,3.0,6.0,83,0.00,,,0.00,0.000000,,2013-09-06 07:42:00,
2013-09-06 00:52:00,67.0,62.0,29.83,WNW,301,3.0,6.0,83,0.00,,,0.00,0.000000,,2013-09-06 07:52:00,
2013-09-06 01:22:00,64.0,60.0,29.82,NNE,26,3.0,5.0,86,0.00,,,0.00,0.000000,,2013-09-06 08:22:00,
2013-09-06 01:32:00,64.0,60.0,29.82,NNE,26,3.0,5.0,86,0.00,,,0.00,0.000000,,2013-09-06 08:32:00,
2013-09-06 01:42:00,64.0,60.0,29.82,NNE,26,3.0,5.0,86,0.00,,,0.00,0.000000,,2013-09-06 08:42:00,
2013-09-06 01:52:00,64.0,60.0,29.82,NNE,26,3.0,5.0,86,0.00,,,0.00,0.000000,,2013-09-06 08:52:00,
2013-09-06 02:22:00,62.0,60.0,29.82,NNE,18,5.0,5.0,93,0.00,,,0.00,0.000000,,2013-09-06 09:22:00,
2013-09-06 02:33:00,62.0,60.0,29.82,NNE,18,5.0,5.0,93,0.00,,,0.00,0.000000,,2013-09-06 09:33:00,
2013-09-06 02:43:00,62.0,60.0,29.82,NNE,18,5.0,5.0,93,0.00,,,0.00,0.000000,,2013-09-06 09:43:00,
2013-09-06 02:53:00,62.0,60.0,29.82,NNE,18,5.0,5.0,93,0.00,,,0.00,0.000000,,2013-09-06 09:53:00,
2013-09-06 03:23:00,66.0,57.0,29.80,WNW,293,4.0,8.0,73,0.00,,,0.00,0.000000,,2013-09-06 10:23:00,
2013-09-06 03:32:00,66.0,57.0,29.80,WNW,293,4.0,8.0,73,0.00,,,0.00,0.000000,,2013-09-06 10:32:00,
2013-09-06 03:42:00,66.0,57.0,29.80,WNW,293,4.0,8.0,73,0.00,,,0.00,0.000000,,2013-09-06 10:42:00,
2013-09-06 03:53:00,66.0,57.0,29.80,WNW,293,4.0,8.0,73,0.00,,,0.00,0.000000,,2013-09-06 10:53:00,
2013-09-06 04:22:00,62.0,51.0,29.80,NE,56,2.0,9.0,66,0.00,,,0.00,0.000000,,2013-09-06 11:22:00,
2013-09-06 04:33:00,62.0,51.0,29.80,NE,56,2.0,9.0,66,0.00,,,0.00,0.000000,,2013-09-06 11:33:00,
2013-09-06 04:42:00,62.0,51.0,29.80,NE,56,2.0,9.0,66,0.00,,,0.00,0.000000,,2013-09-06 11:42:00,
2013-09-06 04:52:00,62.0,51.0,29.80,NE,56,2.0,9.0,66,0.00,,,0.00,0.000000,,2013-09-06 11:52:00,
2013-09-06 05:21:00,62.0,61.0,29.81,NE,49,3.0,7.0,97,0.00,,,0.00,0.000000,,2013-09-06 12:21:00,
2013-09-06 05:32:00,62.0,61.0,29.81,NE,49,3.0,7.0,97,0.00,,,0.00,0.000000,,2013-09-06 12:32:00,
2013-09-06 05:42:00,62.0,61.0,29.81,NE,49,3.0,7.0,97,0.00,,,0.00,0.000000,,2013-09-06 12:42:00,
2013-09-06 05:52:00,62.0,61.0,29.81,NE,49,3.0,7.0,97,0.00,,,0.00,0.000000,,2013-09-06 12:52:00,
2013-09-06 06:22:00,67.0,48.0,29.81,NNE,14,6.0,8.0,50,0.00,,,0.00,0.000000,,2013-09-06 13:22:00,
2013-09-06 06:32:00,67.0,48.0,29.81,NNE,14,6.0,8.0,50,0.00,,,0.00,0.000000,,2013-09-06 13:32:00,
2013-09-06 06:42:00,67.0,48.0,29.81,NNE,14,6.0,8.0,50,0.00,,,0.00,0.000000,,2013-09-06 13:42:00,
2013-09-06 06:52:00,67.0,48.0,29.81,NNE,14,6.0,8.0,50,0.00,,,0.00,0.000000,,2013-09-06 13:52:00,
2013-09-06 07:22:00,66.0,50.0,29.82,NE,50,1.0,8.0,57,0.00,,,0.00,2.000000,,2013-09-06 14:22:00,
2013-09-06 07:32:00,66.0,50.0,29.82,NE,50,1.0,8.0,57,0.00,,,0.00,2.000000,,2013-09-06 14:32:00,
2013-09-06 07:42:00,66.0,50.0,29.82,NE,50,1.0,8.0,57,0.00,,,0.00,2.000000,,2013-09-06 14:42:00,
2013-09-06 07:52:00,66.0,50.0,29.82,NE,50,1.0,8.0,57,0.00,,,0.00,2.000000,,2013-09-06 14:52:00,
2013-09-06 08:22:00,76.0,56.0,29.83,NW,325,1.0,9.0,50,0.00,,,0.00,126.000000,,2013-09-06 15:22:00,
2013-09-06 08:34:00,76.0,56.0,29.83,NW,325,1.0,9.0,50,0.00,,,0.00,126.000000,,2013-09-06 15:34:00,
2013-09-06 08:43:00,76.0,56.0,29.83,NW,325,1.0,9.0,50,0.00,,,0.00,126.000000,,2013-09-06 15:43:00,
2013-09-06 08:53:00,76.0,56.0,29.83,NW,325,1.0,9.0,50,0.00,,,0.00,126.000000,,2013-09-06 15:53:00,
2013-09-06 09:42:00,79.0,58.0,29.83,WSW,243,5.0,5.0,49,0.00,,,0.00,332.000000,,2013-09-06 16:42:00,
2013-09-06 09:53:00,79.0,58.0,29.83,WSW,243,5.0,5.0,49,0.00,,,0.00,332.000000,,2013-09-06 16:53:00,
2013-09-06 10:24:00,80.0,62.0,29.85,ENE,72,3.0,7.0,54,0.00,,,-99.99,533.000000,,2013-09-06 17:24:00,
2013-09-06 10:34:00,80.0,62.0,29.85,ENE,72,3.0,7.0,54,0.00,,,-99.99,533.000000,,2013-09-06 17:34:00,
2013-09-06 10:43:00,80.0,62.0,29.85,ENE,72,3.0,7.0,54,0.00,,,-99.99,533.000000,,2013-09-06 17:43:00,
2013-09-06 10:53:00,80.0,62.0,29.85,ENE,72,3.0,7.0,54,0.00,,,-99.99,533.000000,,2013-09-06 17:53:00,
2013-09-06 11:22:00,81.0,63.0,29.84,WSW,248,6.0,8.0,55,0.00,,,0.00,709.000000,,2013-09-06 18:22:00,
2013-09-06 11:32:00,81.0,63.0,29.84,WSW,248,6.0,8.0,55,0.00,,,0.00,709.000000,,2013-09-06 18:32:00,
2013-09-06 11:42:00,81.0,63.0,29.84,WSW,248,6.0,8.0,55,0.00,,,0.00,709.000000,,2013-09-06 18:42:00,
2013-09-06 11:52:00,81.0,63.0,29.84,WSW,248,6.0,8.0,55,0.00,,,0.00,709.000000,,2013-09-06 18:52:00,
2013-09-06 12:22:00,77.0,62.0,29.83,WSW,251,9.0,10.0,60,0.00,,,0.00,839.000000,,2013-09-06 19:22:00,
2013-09-06 12:32:00,77.0,62.0,29.83,WSW,251,9.0,10.0,60,0.00,,,0.00,839.000000,,2013-09-06 19:32:00,
2013-09-06 12:42:00,77.0,62.0,29.83,WSW,251,9.0,10.0,60,0.00,,,0.00,839.000000,,2013-09-06 19:42:00,
2013-09-06 13:23:00,79.0,61.0,29.83,WSW,251,11.0,12.0,55,-99.99,,,0.00,911.000000,,2013-09-06 20:23:00,
2013-09-06 13:32:00,79.0,61.0,29.83,WSW,251,11.0,12.0,55,-99.99,,,0.00,911.000000,,2013-09-06 20:32:00,
2013-09-06 13:42:00,79.0,61.0,29.83,WSW,251,11.0,12.0,55,-99.99,,,0.00,911.000000,,2013-09-06 20:42:00,
2013-09-06 13:52:00,79.0,61.0,29.83,WSW,251,11.0,12.0,55,-99.99,,,0.00,911.000000,,2013-09-06 20:52:00,
2013-09-06 14:22:00,81.0,59.0,29.80,West,265,19.0,19.0,48,-99.99,,,0.00,918.000000,,2013-09-06 21:22:00,
2013-09-06 14:34:00,81.0,59.0,29.80,West,265,19.0,19.0,48,-99.99,,,0.00,918.000000,,2013-09-06 21:34:00,
2013-09-06 14:43:00,81.0,59.0,29.80,West,265,19.0,19.0,48,-99.99,,,0.00,918.000000,,2013-09-06 21:43:00,
2013-09-06 14:54:00,81.0,59.0,29.80,West,265,19.0,19.0,48,-99.99,,,0.00,918.000000,,2013-09-06 21:54:00,
2013-09-06 15:23:00,80.0,61.0,29.78,West,267,17.0,29.0,52,0.00,,,0.00,855.000000,,2013-09-06 22:23:00,
2013-09-06 15:33:00,80.0,61.0,29.78,West,267,17.0,29.0,52,0.00,,,0.00,855.000000,,2013-09-06 22:33:00,
2013-09-06 15:44:00,80.0,61.0,29.78,West,267,17.0,29.0,52,0.00,,,0.00,855.000000,,2013-09-06 22:44:00,
2013-09-06 15:53:00,80.0,61.0,29.78,West,267,17.0,29.0,52,0.00,,,0.00,855.000000,,2013-09-06 22:53:00,
2013-09-06 16:23:00,79.0,61.0,29.76,West,259,15.0,30.0,55,0.00,,,0.00,730.000000,,2013-09-06 23:23:00,
2013-09-06 16:33:00,79.0,61.0,29.76,West,259,15.0,30.0,55,0.00,,,0.00,730.000000,,2013-09-06 23:33:00,
2013-09-06 16:42:00,79.0,61.0,29.76,West,259,15.0,30.0,55,0.00,,,0.00,730.000000,,2013-09-06 23:42:00,
2013-09-06 16:52:00,79.0,61.0,29.76,West,259,15.0,30.0,55,0.00,,,0.00,730.000000,,2013-09-06 23:52:00,
2013-09-06 17:22:00,83.0,62.0,29.75,West,260,15.0,26.0,49,0.00,,,0.00,555.000000,,2013-09-07 00:22:00,
2013-09-06 17:32:00,83.0,62.0,29.75,West,260,15.0,26.0,49,0.00,,,0.00,555.000000,,2013-09-07 00:32:00,
2013-09-06 17:42:00,83.0,62.0,29.75,West,260,15.0,26.0,49,0.00,,,0.00,555.000000,,2013-09-07 00:42:00,
2013-09-06 17:52:00,83.0,62.0,29.75,West,260,15.0,26.0,49,0.00,,,0.00,555.000000,,2013-09-07 00:52:00,
2013-09-06 18:21:00,78.0,62.0,29.74,WSW,257,13.0,25.0,57,0.00,,,0.00,351.000000,,2013-09-07 01:21:00,
2013-09-06 18:32:00,78.0,62.0,29.74,WSW,257,13.0,25.0,57,0.00,,,0.00,351.000000,,2013-09-07 01:32:00,
2013-09-06 18:42:00,78.0,62.0,29.74,WSW,257,13.0,25.0,57,0.00,,,0.00,351.000000,,2013-09-07 01:42:00,
2013-09-06 18:53:00,78.0,62.0,29.74,WSW,257,13.0,25.0,57,0.00,,,0.00,351.000000,,2013-09-07 01:53:00,
2013-09-06 19:23:00,76.0,60.0,29.73,WSW,258,11.0,21.0,57,0.00,,,0.00,108.000000,,2013-09-07 02:23:00,
2013-09-06 19:32:00,76.0,60.0,29.73,WSW,258,11.0,21.0,57,0.00,,,0.00,108.000000,,2013-09-07 02:32:00,
2013-09-06 19:42:00,76.0,60.0,29.73,WSW,258,11.0,21.0,57,0.00,,,0.00,108.000000,,2013-09-07 02:42:00,
2013-09-06 19:52:00,76.0,60.0,29.73,WSW,258,11.0,21.0,57,0.00,,,0.00,108.000000,,2013-09-07 02:52:00,
2013-09-06 20:23:00,74.0,56.0,29.75,West,271,10.0,18.0,53,0.00,,,0.00,3.000000,,2013-09-07 03:23:00,
2013-09-06 20:34:00,74.0,56.0,29.75,West,271,10.0,18.0,53,0.00,,,0.00,3.000000,,2013-09-07 03:34:00,
2013-09-06 20:44:00,74.0,56.0,29.75,West,271,10.0,18.0,53,0.00,,,0.00,3.000000,,2013-09-07 03:44:00,
2013-09-06 20:54:00,74.0,56.0,29.75,West,271,10.0,18.0,53,0.00,,,0.00,3.000000,,2013-09-07 03:54:00,
2013-09-06 21:23:00,64.0,59.0,29.78,NW,305,1.0,15.0,83,0.00,,,0.00,0.000000,,2013-09-07 04:23:00,
2013-09-06 21:34:00,64.0,59.0,29.78,NW,305,1.0,15.0,83,0.00,,,0.00,0.000000,,2013-09-07 04:34:00,
2013-09-06 21:43:00,64.0,59.0,29.78,NW,305,1.0,15.0,83,0.00,,,0.00,0.000000,,2013-09-07 04:43:00,
2013-09-06 21:54:00,64.0,59.0,29.78,NW,305,1.0,15.0,83,0.00,,,0.00,0.000000,,2013-09-07 04:54:00,
2013-09-06 22:23:00,65.0,61.0,29.79,NE,55,6.0,15.0,87,-99.99,,,0.00,0.000000,,2013-09-07 05:23:00,
2013-09-06 22:33:00,65.0,61.0,29.79,NE,55,6.0,15.0,87,-99.99,,,0.00,0.000000,,2013-09-07 05:33:00,
2013-09-06 22:42:00,65.0,61.0,29.79,NE,55,6.0,15.0,87,-99.99,,,0.00,0.000000,,2013-09-07 05:42:00,
2013-09-06 22:52:00,65.0,61.0,29.79,NE,55,6.0,15.0,87,-99.99,,,0.00,0.000000,,2013-09-07 05:52:00,
2013-09-06 23:21:00,64.0,61.0,29.79,NE,53,3.0,9.0,89,0.00,,,0.00,0.000000,,2013-09-07 06:21:00,
2013-09-06 23:33:00,64.0,61.0,29.79,NE,53,3.0,9.0,89,0.00,,,0.00,0.000000,,2013-09-07 06:33:00,
2013-09-06 23:42:00,64.0,61.0,29.79,NE,53,3.0,9.0,89,0.00,,,0.00,0.000000,,2013-09-07 06:42:00,
2013-09-06 23:52:00,64.0,61.0,29.79,NE,53,3.0,9.0,89,0.00,,,0.00,0.000000,,2013-09-07 06:52:00,